Regional Weather Roundup
Issued by NWS Glasgow, MT

Home | Current Version | Previous Version | Text Only | Print | Product List | Glossary On
Versions: 1 2 3 4 5 6 7 8 9 10 11 12 13 14 15 16 17 18 19 20 21 22 23 24 25 26 27 28 29 30 31 32 33 34 35 36 37 38 39 40 41 42 43 44 45 46 47 48 49 50
091
ASUS45 KGGW 301415
RWRGGW
HOURLY REGIONAL WEATHER ROUNDUP FOR NORTHEAST MONTANA
NATIONAL WEATHER SERVICE GLASGOW MONTANA
800 AM MDT THU MAR 30 2017

NOTE: "FAIR" INDICATES FEW OR NO CLOUDS BELOW 12,000 FEET WITH NO
SIGNIFICANT WEATHER AND/OR OBSTRUCTIONS TO VISISBILITY.

NORTHEAST MONTANA


CITY           SKY/WX    TMP DP  RH WIND       PRES   REMARKS
GLASGOW        CLOUDY    39  33  79 SE6       29.68R
PLENTYWOOD       N/A     46  32  58 E5          N/A
WOLF POINT     CLOUDY    43  34  70 CALM      29.69S
JORDAN           N/A     42  35  76 W8        29.69S
SIDNEY         CLOUDY    46  38  73 CALM      29.71S
GLENDIVE       CLOUDY    45  39  79 CALM      29.71S
MALTA            N/A     40  35  83 W3          N/A
SCOBEY           N/A     43  29  58 CALM      29.69

FORT PECK REPORTS


CITY           SKY/WX    TMP DP  RH WIND       PRES   REMARKS
FORT PECK        N/A     41  32  70 S3          N/A
THE PINES        N/A     44  33  65 CALM        N/A

SOUTHEAST MONTANA


CITY           SKY/WX    TMP DP  RH WIND       PRES   REMARKS
BILLINGS       LGT RAIN  47  40  76 W6        29.72R
MILES CITY     CLOUDY    46  36  68 S5        29.69S
BAKER          CLOUDY    44  39  82 SE6       29.72S
LIVINGSTON     LGT RAIN  37  34  89 SW16      29.76R FOG

CENTRAL MONTANA


CITY           SKY/WX    TMP DP  RH WIND       PRES   REMARKS
HAVRE          PTCLDY    36  34  92 SW10      29.69R
LEWISTOWN      CLOUDY    43  33  68 VRB5      29.72R
GREAT FALLS    MOCLDY    41  33  73 SW8       29.71R
CUT BANK       PTCLDY    36  30  79 W14       29.71R
HELENA         CLOUDY    45  36  70 SW10      29.75S
BUTTE          CLOUDY    35  32  88 NW3       29.76S
BOZEMAN        LGT RAIN  41  39  93 S13       29.78R

WESTERN MONTANA


CITY           SKY/WX    TMP DP  RH WIND       PRES   REMARKS
MISSOULA       MOCLDY    37  36  96 NE5       29.81R
KALISPELL      NOT AVBL

NORTH DAKOTA


CITY           SKY/WX    TMP DP  RH WIND       PRES   REMARKS
WILLISTON      CLOUDY    44  37  76 NE5       29.71F
DICKINSON      CLOUDY    41  37  86 S12       29.72S
MINOT          CLOUDY    46  35  65 S14       29.75S
BISMARCK       PTSUNNY   40  35  83 SE13      29.85S

SOUTHERN SASKATCHEWAN


CITY           SKY/WX    TMP DP  RH WIND       PRES   REMARKS
REGINA         PTSUNNY   41  34  75 E6        29.72S
MOOSE JAW      PTSUNNY   43  32  65 E2        29.71R
ESTEVAN        PTSUNNY   37  34  87 N5        29.74S
SWIFT CURRENT  PTSUNNY   41  32  70 SE7       29.65S





USA.gov is the U.S. government's official web portal to all federal, state and local government web resources and services.